Flag for Austria Weather past 2 weeks in Ternitz, Lower Austria, Austria

Now
57 °F

Passing clouds.


Feels Like: 57 °F
Forecast: 49 / 68 °F
Wind: 1 mph from Northwest

Location: Eisenstadt

Current Time: Sep 17, 2014 at 12:08:54 AM

Latest Report: Sep 16, 2014 at 11:00 PM


Visibility: 9 mi

Pressure: 30.09 "Hg

Humidity: 95%

Dew point: 56 °F

Location of TernitzLocation

Historic Weather in Ternitz — Graph

°F

Ternitz temperature yesterday

Maximum temperature yesterday: 68 °F (at 4:00 PM)
Minimum temperature yesterday: 56 °F (at 7:00 AM)
Average temperature yesterday: 61 °F

Past Weeks' High & Low Weather Summary

 TemperatureHumidityPressure
High78 °F (Sep 9, 2:00 PM)99% (Sep 9, 9:00 AM)30.09 "Hg (Sep 9, 9:00 AM)
Low55 °F (Sep 13, 5:00 AM)54% (Sep 9, 2:00 PM)29.77 "Hg (Sep 12, 5:00 AM)
Average63 °F84%29.97 "Hg
* Reported Sep 1 10:00 PM — Sep 16 10:00 PM, Ternitz, Weather by CustomWeather, © 2014

Note: Actual official high and low records may vary slightly from our data, if they occured in-between our weather recording intervals... More about our weather records

Advertising

Ternitz weather history for previous 24 hours

 ConditionsComfort  
Time TempWeatherWind HumidityBarometerVisibility
10:00 PM
Sep 16
59 °FCool.2 mph95%30.09 "HgN/A
9:00 PM60 °FCool.1 mph93%30.09 "HgN/A
8:00 PM62 °FPassing clouds.2 mph89%30.06 "Hg11 mi
7:00 PM65 °FPartly sunny.2 mph79%30.05 "Hg11 mi
6:00 PM67 °FMild.5 mph73%30.05 "HgN/A
5:00 PM68 °FOvercast.6 mph69%30.05 "Hg11 mi
4:00 PM68 °FMild.3 mph73%30.06 "HgN/A
3:00 PM67 °FMild.5 mph74%30.06 "HgN/A
2:00 PM65 °FOvercast.3 mph78%30.07 "Hg11 mi
1:00 PM64 °FMild.3 mph82%30.09 "HgN/A
12:00 PM63 °FMild.3 mph87%30.09 "HgN/A
11:00 AM60 °FCool.1 mph92%30.09 "HgN/A
10:00 AM60 °FCool.2 mph93%30.08 "HgN/A
9:00 AM60 °FCool.1 mph93%30.07 "HgN/A
8:00 AM57 °FPartly sunny.1 mph96%30.06 "Hg6 mi
7:00 AM56 °FScattered clouds.1 mph97%30.06 "Hg4 mi
6:00 AM56 °FPassing clouds.1 mph97%30.05 "Hg6 mi
5:00 AM57 °FOvercast.2 mph97%30.05 "Hg6 mi
4:00 AM57 °FOvercast.1 mph96%30.05 "Hg6 mi
3:00 AM58 °FCool.2 mph96%30.04 "HgN/A
2:00 AM58 °FPassing clouds.2 mph95%30.05 "Hg6 mi
1:00 AM58 °FCool.3 mph96%30.04 "HgN/A
12:00 AM59 °FCool.3 mph96%30.04 "HgN/A
Weather by CustomWeather, © 2014

See weather overviewHow to use our weather pages